Regional Weather Roundup
Issued by NWS

Home | Current Version | Previous Version | Text Only | Print | Product List | Glossary On
Versions: 1 2 3 4 5 6 7 8 9 10 11 12 13 14 15 16 17 18 19 20 21 22 23 24 25 26 27 28 29 30 31 32 33 34 35 36 37 38 39 40 41 42 43 44 45 46 47 48 49 50
000
ASUS43 KBIS 162220
RWRND

NORTH DAKOTA REGIONAL WEATHER ROUNDUP
NATIONAL WEATHER SERVICE BISMARCK ND
500 PM CDT TUE SEP 16 2014

NOTE: "FAIR" INDICATES FEW OR NO CLOUDS BELOW 12,000 FEET WITH NO
SIGNIFICANT WEATHER AND/OR OBSTRUCTIONS TO VISIBILITY.


NDZ001>003-009>011-017-162300-
NORTHWEST NORTH DAKOTA

CITY           SKY/WX    TMP DP  RH WIND       PRES   REMARKS
WILLISTON      SUNNY     75  33  21 VRB3      29.93F
MINOT          SUNNY     73  43  33 CALM      29.92F
MINOT AFB      SUNNY     71  45  39 E5        29.91F
$$

NDZ018>021-031>035-040>046-162300-
SOUTHWEST NORTH DAKOTA

CITY           SKY/WX    TMP DP  RH WIND       PRES   REMARKS
BISMARCK       SUNNY     76  45  33 CALM      29.93F
DICKINSON      SUNNY     73  48  41 NE7       29.93F
GARRISON         N/A     72  44  36 SW8       29.93F
HETTINGER ARPT SUNNY     77  44  30 VRB5      29.94F
$$

NDZ004>008-012>016-024-026-027-054-162300-
NORTHEAST NORTH DAKOTA

CITY           SKY/WX    TMP DP  RH WIND       PRES   REMARKS
GRAND FORKS    PTSUNNY   74  42  31 VRB7      29.93F
GRND FRKS AFB  SUNNY     73  41  31 SW8       29.94F
DEVILS LAKE    SUNNY     72  39  30 SW3       29.92F
$$

NDZ022-023-025-028>030-036>039-047>053-162300-
SOUTHEAST NORTH DAKOTA

CITY           SKY/WX    TMP DP  RH WIND       PRES   REMARKS
FARGO          SUNNY     71  41  33 S5        29.96F
JAMESTOWN      SUNNY     69  48  47 SE6       29.94F
$$




USA.gov is the U.S. government's official web portal to all federal, state and local government web resources and services.